2CUTH EGBE-EGJJ

Flight info

Callsign 2CUTH
Flight time 0h 49m
Altitude 19000
Route KIDLI N859 CPT Y321 PEPIS/N0299F200 Q41 SAM N63 LELNA
Aircraft TBM9/L-SDFGRWY/S

Departure

Time 2026-04-26 17:32
Airport Coventry Airport (EGBE)

Arrival

Time 2026-04-26 18:22
Airport Jersey Airport (EGJJ)
Time Latitude Longitude Altitude Speed Heading
2026-04-26 17:22 52.37071 -1.48317 269 ft 0 kts 261°
2026-04-26 17:29 52.37071 -1.48322 276 ft 3 kts 292°
2026-04-26 17:29 52.37076 -1.48291 276 ft 9 kts 111°
2026-04-26 17:29 52.36955 -1.48235 276 ft 21 kts 174°
2026-04-26 17:29 52.36881 -1.48162 277 ft 14 kts 58°
2026-04-26 17:30 52.36994 -1.47939 279 ft 38 kts 50°
2026-04-26 17:30 52.37200 -1.47577 275 ft 44 kts 48°
2026-04-26 17:30 52.37401 -1.47219 276 ft 41 kts 49°
2026-04-26 17:30 52.37556 -1.46920 277 ft 20 kts 57°
2026-04-26 17:31 52.37582 -1.46901 277 ft 0 kts 226°
2026-04-26 17:31 52.37566 -1.46930 277 ft 18 kts 227°
2026-04-26 17:32 52.37322 -1.47364 275 ft 85 kts 228°
2026-04-26 17:32 52.36810 -1.48283 446 ft 122 kts 225°
2026-04-26 17:32 52.36191 -1.49286 971 ft 129 kts 219°
2026-04-26 17:32 52.35465 -1.50346 1296 ft 157 kts 216°
2026-04-26 17:33 52.34318 -1.50906 1294 ft 188 kts 180°
2026-04-26 17:33 52.33036 -1.50637 1307 ft 185 kts 172°
2026-04-26 17:33 52.31768 -1.50299 1311 ft 184 kts 171°
2026-04-26 17:34 52.29311 -1.49517 2290 ft 178 kts 161°
2026-04-26 17:34 52.28196 -1.48667 2955 ft 175 kts 154°
2026-04-26 17:34 52.27092 -1.47770 3495 ft 178 kts 155°
2026-04-26 17:34 52.25990 -1.46870 4126 ft 177 kts 153°
2026-04-26 17:35 52.24901 -1.45901 4682 ft 180 kts 155°
2026-04-26 17:35 52.23704 -1.45303 5222 ft 182 kts 171°
2026-04-26 17:35 52.22439 -1.45051 5740 ft 184 kts 175°
2026-04-26 17:35 52.21158 -1.44819 6272 ft 186 kts 174°
2026-04-26 17:36 52.19861 -1.44563 6811 ft 188 kts 174°
2026-04-26 17:36 52.18555 -1.44305 7381 ft 190 kts 175°
2026-04-26 17:36 52.17242 -1.44046 8016 ft 190 kts 174°
2026-04-26 17:36 52.15922 -1.43783 8642 ft 192 kts 175°
2026-04-26 17:37 52.14604 -1.43520 9269 ft 194 kts 175°
2026-04-26 17:37 52.13258 -1.43250 9884 ft 196 kts 175°
2026-04-26 17:37 52.11899 -1.42984 10484 ft 197 kts 176°
2026-04-26 17:38 52.09161 -1.42442 11631 ft 199 kts 176°
2026-04-26 17:38 52.07779 -1.42169 12215 ft 200 kts 176°
2026-04-26 17:38 52.06391 -1.41896 12801 ft 201 kts 176°
2026-04-26 17:38 52.04993 -1.41618 13382 ft 203 kts 176°
2026-04-26 17:39 52.03589 -1.41341 13981 ft 204 kts 176°
2026-04-26 17:39 52.02174 -1.41064 14498 ft 206 kts 176°
2026-04-26 17:39 52.00743 -1.40780 14969 ft 209 kts 177°
2026-04-26 17:39 51.99293 -1.40494 15477 ft 211 kts 177°
2026-04-26 17:40 51.97844 -1.40211 15962 ft 214 kts 177°
2026-04-26 17:40 51.97344 -1.40113 16137 ft 215 kts 177°
2026-04-26 17:40 51.94855 -1.39620 16968 ft 219 kts 178°
2026-04-26 17:40 51.93333 -1.39322 17471 ft 222 kts 178°
2026-04-26 17:41 51.91794 -1.39021 17972 ft 224 kts 178°
2026-04-26 17:41 51.90236 -1.38714 18479 ft 227 kts 178°
2026-04-26 17:41 51.88660 -1.38404 18929 ft 229 kts 178°
2026-04-26 17:41 51.87059 -1.38095 19259 ft 237 kts 178°
2026-04-26 17:42 51.85347 -1.37772 19270 ft 256 kts 178°
2026-04-26 17:42 51.83535 -1.37423 19279 ft 267 kts 177°
2026-04-26 17:42 51.81660 -1.37053 19276 ft 274 kts 177°
2026-04-26 17:42 51.79749 -1.36676 19279 ft 279 kts 177°
2026-04-26 17:43 51.77811 -1.36297 19275 ft 282 kts 176°
2026-04-26 17:43 51.75910 -1.35559 19262 ft 287 kts 166°
2026-04-26 17:43 51.73999 -1.34549 19266 ft 288 kts 166°
2026-04-26 17:43 51.72081 -1.33587 19267 ft 289 kts 167°
2026-04-26 17:44 51.70154 -1.32622 19263 ft 289 kts 166°
2026-04-26 17:44 51.68233 -1.31643 19259 ft 290 kts 166°
2026-04-26 17:44 51.66306 -1.30660 19262 ft 290 kts 166°
2026-04-26 17:44 51.64379 -1.29684 19259 ft 290 kts 166°
2026-04-26 17:45 51.62452 -1.28711 19258 ft 291 kts 166°
2026-04-26 17:45 51.60523 -1.27735 19255 ft 290 kts 166°
2026-04-26 17:45 51.58622 -1.26771 19255 ft 290 kts 166°
2026-04-26 17:45 51.56691 -1.25798 19255 ft 290 kts 166°
2026-04-26 17:46 51.54765 -1.24826 19259 ft 290 kts 166°
2026-04-26 17:46 51.52833 -1.23851 19260 ft 291 kts 166°
2026-04-26 17:46 51.50898 -1.22877 19259 ft 291 kts 166°
2026-04-26 17:46 51.48935 -1.22159 19269 ft 288 kts 178°
2026-04-26 17:47 51.46951 -1.22179 19274 ft 285 kts 187°
2026-04-26 17:47 51.46281 -1.22242 19275 ft 285 kts 187°
2026-04-26 17:47 51.42982 -1.22504 19272 ft 286 kts 186°
2026-04-26 17:47 51.40996 -1.22662 19272 ft 286 kts 186°
2026-04-26 17:48 51.39006 -1.22827 19264 ft 286 kts 186°
2026-04-26 17:48 51.37021 -1.22991 19267 ft 285 kts 186°
2026-04-26 17:48 51.35063 -1.23150 19265 ft 285 kts 186°
2026-04-26 17:48 51.33076 -1.23309 19264 ft 286 kts 186°
2026-04-26 17:49 51.31092 -1.23470 19261 ft 286 kts 186°
2026-04-26 17:49 51.29107 -1.23634 19260 ft 285 kts 186°
2026-04-26 17:49 51.27118 -1.23794 19255 ft 286 kts 186°
2026-04-26 17:49 51.25131 -1.23954 19260 ft 286 kts 186°
2026-04-26 17:50 51.23142 -1.24116 19262 ft 286 kts 186°
2026-04-26 17:50 51.21151 -1.24277 19254 ft 286 kts 186°
2026-04-26 17:50 51.19200 -1.24590 19259 ft 284 kts 195°
2026-04-26 17:50 51.17301 -1.25419 19265 ft 283 kts 199°
2026-04-26 17:51 51.15396 -1.26214 19262 ft 283 kts 198°
2026-04-26 17:51 51.13489 -1.26994 19264 ft 283 kts 198°
2026-04-26 17:51 51.11588 -1.27796 19254 ft 283 kts 198°
2026-04-26 17:51 51.09686 -1.28604 19264 ft 283 kts 198°
2026-04-26 17:52 51.07779 -1.29406 19251 ft 283 kts 198°
2026-04-26 17:52 51.05869 -1.30205 19257 ft 283 kts 198°
2026-04-26 17:52 51.03966 -1.31002 19261 ft 283 kts 198°
2026-04-26 17:52 51.02062 -1.31802 19260 ft 283 kts 198°
2026-04-26 17:53 51.00154 -1.32602 19282 ft 282 kts 198°
2026-04-26 17:53 50.98261 -1.33389 19398 ft 282 kts 198°
2026-04-26 17:53 50.96365 -1.34181 19585 ft 280 kts 199°
2026-04-26 17:54 50.92897 -1.36666 19976 ft 274 kts 210°
2026-04-26 17:54 50.91188 -1.38010 20166 ft 274 kts 210°
2026-04-26 17:54 50.89474 -1.39368 20264 ft 277 kts 210°
2026-04-26 17:54 50.87752 -1.40752 20258 ft 278 kts 211°
2026-04-26 17:55 50.86019 -1.42140 20260 ft 280 kts 210°
2026-04-26 17:55 50.84275 -1.43527 20254 ft 281 kts 210°
2026-04-26 17:55 50.82529 -1.44916 20260 ft 281 kts 210°
2026-04-26 17:55 50.80783 -1.46307 20257 ft 281 kts 210°
2026-04-26 17:56 50.79036 -1.47696 20261 ft 281 kts 210°
2026-04-26 17:56 50.76123 -1.50008 20260 ft 281 kts 211°
2026-04-26 17:57 50.72625 -1.52782 20259 ft 281 kts 210°
2026-04-26 17:57 50.70876 -1.54166 20265 ft 281 kts 211°
2026-04-26 17:57 50.69131 -1.55547 20259 ft 281 kts 211°
2026-04-26 17:57 50.67385 -1.56928 20260 ft 281 kts 211°
2026-04-26 17:58 50.62140 -1.61067 20265 ft 281 kts 211°
2026-04-26 17:59 50.58669 -1.63802 20265 ft 280 kts 210°
2026-04-26 17:59 50.56925 -1.65174 20258 ft 280 kts 211°
2026-04-26 17:59 50.55177 -1.66548 20261 ft 280 kts 211°
2026-04-26 17:59 50.53429 -1.67921 20258 ft 280 kts 211°
2026-04-26 18:00 50.51683 -1.69291 20256 ft 280 kts 210°
2026-04-26 18:00 50.49938 -1.70659 20252 ft 280 kts 210°
2026-04-26 18:00 50.48193 -1.72026 20256 ft 280 kts 210°
2026-04-26 18:00 50.46445 -1.73394 20256 ft 280 kts 210°
2026-04-26 18:01 50.44699 -1.74760 20259 ft 280 kts 210°
2026-04-26 18:01 50.42971 -1.76110 20258 ft 280 kts 210°
2026-04-26 18:01 50.41229 -1.77471 20249 ft 280 kts 210°
2026-04-26 18:01 50.39482 -1.78833 20251 ft 280 kts 210°
2026-04-26 18:02 50.37738 -1.80192 20255 ft 280 kts 210°
2026-04-26 18:02 50.36584 -1.81092 20254 ft 280 kts 210°
2026-04-26 18:02 50.34253 -1.82907 20253 ft 280 kts 210°
2026-04-26 18:02 50.32511 -1.84261 20258 ft 280 kts 210°
2026-04-26 18:03 50.30769 -1.85614 20249 ft 279 kts 210°
2026-04-26 18:03 50.29025 -1.86968 20253 ft 279 kts 210°
2026-04-26 18:03 50.27283 -1.88320 20253 ft 279 kts 210°
2026-04-26 18:03 50.25567 -1.89649 20255 ft 279 kts 210°
2026-04-26 18:04 50.23828 -1.90996 20248 ft 279 kts 210°
2026-04-26 18:04 50.22088 -1.92343 20252 ft 279 kts 210°
2026-04-26 18:04 50.20348 -1.93688 20249 ft 279 kts 210°
2026-04-26 18:05 50.16870 -1.96374 20246 ft 278 kts 210°
2026-04-26 18:05 50.15133 -1.97713 20249 ft 278 kts 210°
2026-04-26 18:05 50.13393 -1.99054 20230 ft 279 kts 210°
2026-04-26 18:05 50.11625 -2.00424 19911 ft 289 kts 210°
2026-04-26 18:06 50.09806 -2.01832 19549 ft 294 kts 210°
2026-04-26 18:06 50.07989 -2.03227 19198 ft 295 kts 210°
2026-04-26 18:06 50.06144 -2.04638 18844 ft 295 kts 210°
2026-04-26 18:06 50.04301 -2.06052 18476 ft 295 kts 210°
2026-04-26 18:07 50.02459 -2.07466 18083 ft 294 kts 210°
2026-04-26 18:07 50.00624 -2.08873 17678 ft 293 kts 209°
2026-04-26 18:07 49.98792 -2.10261 17279 ft 293 kts 207°
2026-04-26 18:07 49.97517 -2.10952 17005 ft 295 kts 198°
2026-04-26 18:08 49.94837 -2.11834 16483 ft 293 kts 195°
2026-04-26 18:08 49.92853 -2.12534 16101 ft 292 kts 195°
2026-04-26 18:08 49.90876 -2.13221 15726 ft 290 kts 195°
2026-04-26 18:08 49.88909 -2.13887 15355 ft 289 kts 194°
2026-04-26 18:09 49.86951 -2.14552 14976 ft 287 kts 194°
2026-04-26 18:09 49.85002 -2.15218 14623 ft 286 kts 194°
2026-04-26 18:09 49.83067 -2.15879 14265 ft 284 kts 194°
2026-04-26 18:09 49.81167 -2.16525 13900 ft 282 kts 194°
2026-04-26 18:10 49.79249 -2.17177 13499 ft 281 kts 194°
2026-04-26 18:10 49.77347 -2.17824 13102 ft 279 kts 194°
2026-04-26 18:10 49.75450 -2.18469 12711 ft 278 kts 194°
2026-04-26 18:10 49.73557 -2.19111 12322 ft 277 kts 194°
2026-04-26 18:11 49.71674 -2.19750 11946 ft 276 kts 194°
2026-04-26 18:11 49.69815 -2.20484 11574 ft 275 kts 198°
2026-04-26 18:11 49.67984 -2.21342 11209 ft 274 kts 199°
2026-04-26 18:11 49.66190 -2.22232 10839 ft 273 kts 199°
2026-04-26 18:12 49.64361 -2.23151 10470 ft 273 kts 200°
2026-04-26 18:12 49.62564 -2.23953 10110 ft 272 kts 195°
2026-04-26 18:12 49.60712 -2.24586 9656 ft 271 kts 193°
2026-04-26 18:12 49.58900 -2.25165 9178 ft 262 kts 193°
2026-04-26 18:13 49.57120 -2.25714 8715 ft 259 kts 193°
2026-04-26 18:13 49.55355 -2.26249 8254 ft 257 kts 193°
2026-04-26 18:13 49.53596 -2.26778 7799 ft 256 kts 193°
2026-04-26 18:13 49.52437 -2.27126 7508 ft 256 kts 193°
2026-04-26 18:14 49.50080 -2.27664 6910 ft 256 kts 189°
2026-04-26 18:14 49.48331 -2.27956 6456 ft 256 kts 188°
2026-04-26 18:14 49.46557 -2.28248 5991 ft 255 kts 188°
2026-04-26 18:14 49.44794 -2.28544 5536 ft 254 kts 188°
2026-04-26 18:15 49.43051 -2.28842 5207 ft 250 kts 188°
2026-04-26 18:15 49.41332 -2.29143 4881 ft 248 kts 188°
2026-04-26 18:15 49.39624 -2.29450 4548 ft 246 kts 188°
2026-04-26 18:15 49.37933 -2.29764 4212 ft 244 kts 188°
2026-04-26 18:16 49.36255 -2.30084 3879 ft 242 kts 188°
2026-04-26 18:16 49.32939 -2.30748 3227 ft 239 kts 188°
2026-04-26 18:16 49.31302 -2.31091 2937 ft 236 kts 188°
2026-04-26 18:17 49.29687 -2.31437 2685 ft 233 kts 188°
2026-04-26 18:17 49.28087 -2.31788 2427 ft 229 kts 188°
2026-04-26 18:17 49.26616 -2.32122 2161 ft 203 kts 187°
2026-04-26 18:17 49.25247 -2.32179 1882 ft 193 kts 175°
2026-04-26 18:18 49.23975 -2.32060 1619 ft 181 kts 174°
2026-04-26 18:18 49.22770 -2.31970 1503 ft 164 kts 175°
2026-04-26 18:18 49.21675 -2.31883 1496 ft 151 kts 174°
2026-04-26 18:18 49.20663 -2.31814 1453 ft 143 kts 171°
2026-04-26 18:19 49.19825 -2.31216 1483 ft 126 kts 128°
2026-04-26 18:19 49.19676 -2.30024 1496 ft 122 kts 76°
2026-04-26 18:19 49.19916 -2.28824 1342 ft 111 kts 76°
2026-04-26 18:19 49.20101 -2.27656 1241 ft 115 kts 81°
2026-04-26 18:20 49.20225 -2.26460 1115 ft 115 kts 82°
2026-04-26 18:20 49.20319 -2.25303 977 ft 97 kts 84°
2026-04-26 18:20 49.20392 -2.24380 853 ft 84 kts 82°
2026-04-26 18:20 49.20444 -2.23786 760 ft 85 kts 82°
2026-04-26 18:21 49.20546 -2.22587 582 ft 87 kts 83°
2026-04-26 18:21 49.20623 -2.21660 447 ft 89 kts 84°
2026-04-26 18:21 49.20697 -2.20741 326 ft 85 kts 81°
2026-04-26 18:21 49.20765 -2.19932 279 ft 63 kts 81°
2026-04-26 18:22 49.20803 -2.19477 280 ft 28 kts 81°
2026-04-26 18:22 49.20814 -2.19206 279 ft 24 kts 94°
2026-04-26 18:22 49.20776 -2.18961 277 ft 20 kts 113°
2026-04-26 18:22 49.20727 -2.18848 278 ft 9 kts 185°
2026-04-26 18:23 49.20699 -2.18930 278 ft 11 kts 263°
2026-04-26 18:23 49.20687 -2.19054 278 ft 13 kts 261°
2026-04-26 18:23 49.20679 -2.19204 275 ft 15 kts 281°
2026-04-26 18:23 49.20698 -2.19308 275 ft 10 kts 286°
2026-04-26 18:24 49.20713 -2.19416 275 ft 10 kts 261°
2026-04-26 18:24 49.20700 -2.19530 275 ft 12 kts 259°
2026-04-26 18:24 49.20677 -2.19628 275 ft 9 kts 233°
2026-04-26 18:24 49.20633 -2.19676 275 ft 6 kts 211°
2026-04-26 18:25 49.20614 -2.19736 275 ft 8 kts 264°
2026-04-26 18:25 49.20607 -2.19825 275 ft 6 kts 263°
2026-04-26 18:25 49.20604 -2.19867 275 ft 4 kts 264°
2026-04-26 18:25 49.20579 -2.19932 275 ft 11 kts 191°
2026-04-26 18:26 49.20497 -2.19923 275 ft 12 kts 174°
2026-04-26 18:26 49.20432 -2.19869 275 ft 12 kts 87°
2026-04-26 18:26 49.20441 -2.19739 275 ft 13 kts 84°
2026-04-26 18:26 49.20432 -2.19598 275 ft 14 kts 105°
2026-04-26 18:27 49.20405 -2.19445 275 ft 16 kts 104°
2026-04-26 18:27 49.20398 -2.19312 271 ft 10 kts 140°
2026-04-26 18:27 49.20352 -2.19282 274 ft 6 kts 96°
2026-04-26 18:27 49.20352 -2.19270 274 ft 0 kts 89°